CZ-6A DEB, 56684

Orbit data source: Space-Track

CZ-6A DEB, 56684 is space debris in SSO originally from a launch on Fri, 11 Nov 2022 UTC launched from the Taiyaun Space Center, China (TSC). Debris objects in space refer to the collection of defunct objects orbiting the Earth. Examples of debris include non-operational satellites, rocket bodies, and fragments generated from explosions, collisions, or faulty payload assembly.

Loading next visibility...
Identifier
56684, 2022-151AHL
Orbit
SSO
Country
Flag of CNCN / PRC
Related business
Manufacturer
SAST
Mission
Spacecraft
Bus & Motor
Unknown
Mass
Unknown
Launch date (UTC)
2022-11-11 (4 years ago)
Launch vehicle
Unknown
Launch site
Taiyaun Space Center, China (TSC)
Object type
Payload
Rocket body
Debris
Shape & HBR
Unknown shape, 0.1 m
Radar Cross Section
Medium (>0.1 m² and <1 m²)

Expand to show TLE details & history
Last TLE update: 15 hours ago

TLE from 15 hours ago
0 CZ-6A DEB
1 56684U 22151AHL 26264.20282648  .00000782  00000-0  52196-3 0  9995
2 56684  98.9335 241.2358 0103448 139.2359 221.6606 14.01345410172269
Epoch: 2026-09-21T04:52Z
TLE epoch observation values (Epoch: 2026-09-21T04:52:04.207Z)
Latitude
0.00003°
Longitude
168.13223°
Altitude
948.539 km
Speed
7.349 km/s
True Right ascension
16h 04m 56s
True Declination
0° 00' 00"
Sunlit
Object was in daylight at epoch
Visualization orbit readout
Latitude
Unknown
Longitude
Unknown
Altitude
Unknown
Speed
Unknown
Apparent Right ascension
Unknown
Apparent Declination
Unknown
Sunlit
N/A
Visualization observer readout
Local Sidereal Time
12:53:36
Azimuth
Unknown
Elevation
Unknown
Doppler factor
Unknown
Orbital elements
Apogee altitude
961.483 km
Perigee altitude
811.184 km
Semi-major axis
7,264.471 km
Eccentricity
0.01034
Inclination
98.9335°
RAAN
241.2358°
Arg. of periapsis
139.2359°
True anomaly
220.88019°
Mean anomaly
221.6606°
Eccentric anomaly
221.26964°
Mean motion
3.5054 °/min
Orbital period
102.7 mins
BSTAR
0.00052196
Loading maneuver chart data...
Computing Atmospheric mass density...
Loading historical data...
Loading historical data...
Loading historical data...
Loading historical data...
Loading historical data...
Loading historical data...
Loading historical data...

Documentation

Showing up to 5 results
|